Location: Pedholt
(56.0260°N, 10.2097°E)
Time: 02:46:35
(UTC+00:00)

Transit 2A Rocket - Pass Details

Date: 04 August 2021
Orbit: 586 x 917 km, 66.7° (Epoch: 27 September)

Event Time Altitude Azimuth Distance (km) Brightness Sun altitude
Rises 15:09:04 0° 258° (WSW) 2,954 9.1 32.9°
Reaches altitude 10° 15:11:26 10° 268° (W) 2,091 8.6 32.5°
Maximum altitude 15:15:48 36° 335° (NNW) 1,124 6.3 32.0°
Drops below altitude 10° 15:20:36 10° 42° (NE) 2,294 7.1 31.3°
Sets 15:23:19 0° 51° (NE) 3,283 7.8 31.0°
